Voltar ao catálogo

CZ-6A DEB

AtivoPO
NORAD 54967·DEBRIS·🇨🇳 China

Lançado Nov 11, 2022 de Taiyuan Satellite Launch Center

Loading…

Próximas Passagens (próximas 24 horas)

TLE

AtualizadoSource: Space-Track

Época: Sep 13, 2026, 09:42 UTC

1 54967U 22151TG  26256.40473639  .00000113  00000-0  19278-3 0  9994
2 54967  99.0441 119.8266 0424023 218.5179 138.4976 13.31119266186232

Acompanhe CZ-6A DEB em tempo real com AllMySat

Download on the App Store